[[{"header":{"parameterUnit":"m.s-1","parameterCategory":1,"la1":30.2991,"la2":30.254,"lo1":-89.0895,"lo2":-89.0444,"dy":0.0017,"dx":0.0017,"nx":28,"ny":28,"refTime":"2024-10-08T03:00:00:Z","depth":0,"parameterNumber":2,"parameterNumberName":"U-component_of_WINDS"},"data":[0,0,0,0,0,0,0,0,0,0,0,0,0,0,0,0,0,0,0,0,0,0,0,0,0,0,0,0,0,0,0,0,0,0,0,0,0,0,0,0,0,0,0,0,0,0,0,0,0,0,0,0,0,0,0,0,0,0,-0.8206,-0.8206,0,-0.8243,-0.8244,-0.8244,-0.8226,-0.8225,-0.8224,-0.8223,-0.8262,-0.8264,-0.8266,0,0,0,0,0,0,0,0,0,0,0,0,0,-0.8117,-0.8119,-0.8206,-0.8206,-0.8207,-0.8243,-0.8244,-0.8244,-0.8226,-0.8225,-0.8224,-0.8223,-0.8261,-0.8263,-0.8266,0,0,0,0,0,0,0,0,0,0,0,0,0,-0.8155,-0.8119,-0.8206,-0.8202,-0.8202,-0.8243,-0.8244,-0.8245,-0.8226,-0.8225,-0.8223,-0.8222,-0.826,-0.8263,-0.8266,-0.8313,0,0,-0.8275,-0.8276,0,0,0,0,0,0,0,0,-0.8153,-0.8158,-0.8202,-0.8202,-0.8202,-0.8228,-0.8227,-0.8268,-0.8227,-0.8217,-0.8223,-0.8221,-0.8252,-0.8255,-0.8266,-0.8315,-0.8317,-0.8275,-0.8277,-0.8278,-0.8279,0,0,0,0,0,0,0,-0.815,-0.8157,-0.8221,-0.8203,-0.8203,-0.8198,-0.8202,-0.8234,-0.8242,-0.8218,-0.8217,-0.8221,-0.8252,-0.8263,-0.8266,-0.8317,-0.8275,-0.8278,-0.828,-0.8281,-0.8408,-0.8409,0,0,0,0,0,0,-0.8148,-0.8155,-0.8219,-0.8222,-0.8174,-0.8201,-0.8205,-0.8222,-0.8242,-0.8243,-0.8222,-0.822,-0.8259,-0.8263,-0.8268,-0.8325,-0.8278,-0.8281,-0.8283,-0.8406,-0.8408,-0.841,0,0,0,0,0,0,-0.8146,-0.8154,-0.8218,-0.8188,-0.8196,-0.8204,-0.8223,-0.8223,-0.8234,-0.8245,-0.8247,-0.8233,-0.8258,-0.8264,-0.8302,-0.8326,-0.8282,-0.8285,-0.8404,-0.8407,-0.8409,-0.844,0,0,0,0,0,0,-0.8144,-0.8153,-0.8172,-0.8188,-0.8197,-0.8252,-0.8224,-0.8225,-0.8239,-0.8237,-0.8255,-0.8257,-0.8257,-0.8298,-0.8305,-0.8329,-0.8287,-0.8402,-0.8405,-0.8408,-0.8437,-0.8443,-0.8448,0,0,0,0,0,-0.814,-0.8179,-0.8173,-0.8181,-0.822,-0.8253,-0.8258,-0.8258,-0.8241,-0.826,-0.8267,-0.8256,-0.8322,-0.8302,-0.831,-0.8335,-0.8401,-0.8404,-0.8408,-0.8434,-0.8442,-0.8448,0,0,0,0,0,0,-0.8165,-0.8181,-0.8174,-0.8219,-0.8235,-0.825,-0.8274,-0.8266,-0.8287,-0.8284,-0.8282,-0.8286,-0.8326,-0.8334,-0.8312,-0.8382,-0.8359,-0.8364,-0.8376,-0.8383,-0.8389,-0.8387,-0.829,0,0,0,0,0,-0.8175,-0.8201,-0.8213,-0.8251,-0.826,-0.8265,-0.828,-0.8278,-0.8294,-0.8301,-0.8311,-0.8327,-0.8351,-0.8367,-0.839,-0.8437,-0.8441,-0.8458,-0.8464,-0.8469,-0.8474,-0.85,-0.8508,-0.8422,-0.8422,-0.8422,0,0,-0.8197,-0.8209,-0.8225,-0.8257,-0.8269,-0.8295,-0.8271,-0.83,-0.832,-0.8305,-0.8343,-0.835,-0.8368,-0.8411,-0.843,-0.8419,-0.8498,-0.8473,-0.8477,-0.848,-0.8504,-0.8512,-0.852,-0.8424,-0.8424,-0.8423,0,0,-0.8251,-0.8262,-0.8296,-0.8308,-0.8327,-0.833,-0.8338,-0.8354,-0.8359,-0.8396,-0.8386,-0.8409,-0.8451,-0.8464,-0.8476,-0.8535,-0.8526,-0.8542,-0.8573,-0.8598,-0.8605,-0.8611,-0.8632,-0.864,-0.8547,-0.8547,-0.8547,0,-0.8276,-0.8316,-0.8314,-0.8344,-0.8358,-0.8346,-0.838,-0.8392,-0.8417,-0.8427,-0.8413,-0.8466,-0.8477,-0.8523,-0.8537,-0.8547,-0.8556,-0.8541,-0.8604,-0.861,-0.8616,-0.8636,-0.8644,-0.8549,-0.8548,-0.8548,-0.8548,0,-0.8346,-0.8374,-0.8399,-0.8424,-0.844,-0.8472,-0.8475,-0.8492,-0.8488,-0.8493,-0.8531,-0.8543,-0.8569,-0.8579,-0.8576,-0.8625,-0.8617,-0.8604,-0.8581,-0.8626,-0.8645,-0.8653,-0.8551,-0.8551,-0.855,-0.855,0,0,-0.8418,-0.8441,-0.845,-0.8461,-0.848,-0.8502,-0.8533,-0.8557,-0.8573,-0.859,-0.8616,-0.8651,-0.8639,-0.8653,-0.8651,-0.8672,-0.8719,-0.8656,-0.8657,-0.8669,-0.8774,-0.8785,-0.8794,-0.8712,-0.8714,-0.8715,-0.8773,0,-0.8474,-0.8529,-0.8528,-0.8579,-0.8604,-0.8592,-0.8619,-0.8634,-0.8639,-0.8661,-0.8666,-0.8691,-0.8673,-0.8681,-0.8702,-0.8709,-0.874,-0.8704,-0.8737,-0.8739,-0.8735,-0.8804,-0.8816,-0.8871,-0.8781,-0.8782,-0.8783,0,-0.8548,-0.8568,-0.8621,-0.8637,-0.8648,-0.8672,-0.8695,-0.8716,-0.8732,-0.8734,-0.8749,-0.8743,-0.8775,-0.8749,-0.8792,-0.8768,-0.8781,-0.8786,-0.8788,-0.8793,-0.8764,-0.8812,-0.8888,-0.8897,-0.8794,-0.8794,-0.8793,0,-0.8596,-0.8636,-0.8674,-0.8683,-0.8702,-0.8719,-0.8728,-0.8743,-0.8758,-0.8777,-0.8787,-0.8809,-0.8822,-0.884,-0.884,-0.8822,-0.8884,-0.8859,-0.8887,-0.8887,-0.8902,-0.8902,-0.8983,-0.8908,-0.8908,-0.8908,-0.8908,0,-0.866,-0.8694,-0.8696,-0.8719,-0.8756,-0.8753,-0.879,-0.8797,-0.881,-0.8834,-0.8824,-0.8847,-0.8845,-0.8868,-0.8869,-0.8905,-0.891,-0.8913,-0.8913,-0.8915,-0.8915,-0.8925,-0.8921,-0.891,-0.891,-0.8909,-0.8909,0,-0.8721,-0.8724,-0.8764,-0.8778,-0.8782,-0.8809,-0.8821,-0.8843,-0.8846,-0.8877,-0.8884,-0.8889,-0.8916,-0.8918,-0.8948,-0.8948,-0.8993,-0.8988,-0.8987,-0.8987,-0.9016,-0.9014,-0.9108,-0.912,-0.9036,-0.9037,-0.9038,0,-0.8762,-0.8788,-0.8805,-0.882,-0.883,-0.8855,-0.887,-0.8868,-0.8885,-0.8905,-0.8924,-0.895,-0.897,-0.9013,-0.902,-0.9043,-0.9039,-0.907,-0.9043,-0.9044,-0.9041,-0.904,-0.9043,-0.9076,-0.9077,-0.9078,-0.9079,0,-0.8836,-0.8836,-0.8858,-0.8881,-0.89,-0.8918,-0.8934,-0.8947,-0.8947,-0.8966,-0.8993,-0.9009,-0.904,-0.9066,-0.9088,-0.9097,-0.9088,-0.9087,-0.9095,-0.9098,-0.9097,-0.9099,-0.9004,-0.9085,-0.9085,-0.9084,-0.9084,-0.9084,-0.8889,-0.8912,-0.8927,-0.8952,-0.8964,-0.898,-0.9002,-0.9008,-0.903,-0.9056,-0.9053,-0.9083,-0.9098,-0.9127,-0.9137,-0.9161,-0.915,-0.9162,-0.9165,-0.9168,-0.9172,-0.9092,-0.9165,-0.9164,-0.9164,-0.9164,-0.9164,0,-0.8963,-0.8972,-0.8996,-0.9019,-0.9039,-0.9028,-0.9046,-0.9064,-0.909,-0.9105,-0.9125,-0.9156,-0.9181,-0.9189,-0.9213,-0.923,-0.9227,-0.9237,-0.9236,-0.9238,-0.9179,-0.917,-0.9239,-0.9239,-0.9239,-0.9239,-0.9239,-0.9239,-0.9004,-0.9042,-0.9043,-0.9086,-0.9095,-0.9125,-0.9136,-0.915,-0.9162,-0.9197,-0.9218,-0.9223,-0.9235,-0.9259,-0.9281,-0.9283,-0.9293,-0.9305,-0.9305,-0.925,-0.9242,-0.9235,-0.9227,-0.9307,-0.9307,-0.9362,-0.9363,-0.9363]},{"header":{"parameterUnit":"m.s-1","parameterCategory":1,"la1":30.2991,"la2":30.254,"lo1":-89.0895,"lo2":-89.0444,"dy":0.0017,"dx":0.0017,"nx":28,"ny":28,"refTime":"2024-10-08T03:00:00:Z","depth":0,"parameterNumber":3,"parameterNumberName":"V-component_of_WINDS"},"data":[0,0,0,0,0,0,0,0,0,0,0,0,0,0,0,0,0,0,0,0,0,0,0,0,0,0,0,0,0,0,0,0,0,0,0,0,0,0,0,0,0,0,0,0,0,0,0,0,0,0,0,0,0,0,0,0,0,0,-5.9359,-5.936,0,-5.9436,-5.9436,-5.9437,-5.9353,-5.935,-5.9347,-5.9344,-5.9417,-5.9421,-5.9426,0,0,0,0,0,0,0,0,0,0,0,0,0,-5.9135,-5.9139,-5.9359,-5.936,-5.9361,-5.9435,-5.9437,-5.9438,-5.9354,-5.935,-5.9346,-5.9342,-5.9415,-5.9421,-5.9427,0,0,0,0,0,0,0,0,0,0,0,0,0,-5.9224,-5.9141,-5.9359,-5.9328,-5.9326,-5.9435,-5.9437,-5.9438,-5.9354,-5.935,-5.9345,-5.934,-5.9413,-5.942,-5.9428,-5.9569,0,0,-5.945,-5.9453,0,0,0,0,0,0,0,0,-5.9219,-5.9232,-5.9332,-5.9331,-5.9329,-5.938,-5.9384,-5.9482,-5.9356,-5.9344,-5.9344,-5.9338,-5.9408,-5.9415,-5.944,-5.9572,-5.9575,-5.9451,-5.9455,-5.9458,-5.946,0,0,0,0,0,0,0,-5.9213,-5.9228,-5.9389,-5.9333,-5.9331,-5.9309,-5.9316,-5.9402,-5.9401,-5.9344,-5.9338,-5.9349,-5.9406,-5.9433,-5.9441,-5.9576,-5.9451,-5.9457,-5.9462,-5.9464,-5.9828,-5.9833,0,0,0,0,0,0,-5.9211,-5.9224,-5.9387,-5.9391,-5.9261,-5.9317,-5.9325,-5.9368,-5.94,-5.9401,-5.9353,-5.9345,-5.9423,-5.9433,-5.9443,-5.9611,-5.9458,-5.9465,-5.9469,-5.9823,-5.9829,-5.9835,0,0,0,0,0,0,-5.9206,-5.9226,-5.9384,-5.9306,-5.9324,-5.9326,-5.9375,-5.9372,-5.9399,-5.9407,-5.9406,-5.9381,-5.942,-5.9433,-5.9539,-5.9613,-5.9469,-5.9475,-5.9817,-5.9825,-5.9832,-5.9948,0,0,0,0,0,0,-5.92,-5.9225,-5.928,-5.9308,-5.9329,-5.948,-5.938,-5.9377,-5.9413,-5.9403,-5.9433,-5.9434,-5.9417,-5.9528,-5.9546,-5.962,-5.9481,-5.981,-5.982,-5.983,-5.9938,-5.9959,-5.9977,0,0,0,0,0,-5.9193,-5.9309,-5.9283,-5.9304,-5.9398,-5.9484,-5.9496,-5.9476,-5.9419,-5.9474,-5.9479,-5.9433,-5.9602,-5.954,-5.9559,-5.9637,-5.9805,-5.9817,-5.9829,-5.9929,-5.9955,-5.9977,0,0,0,0,0,0,-5.9287,-5.9312,-5.9284,-5.9413,-5.9447,-5.947,-5.9538,-5.9504,-5.9554,-5.9542,-5.9513,-5.9521,-5.9633,-5.9645,-5.9576,-5.9775,-5.9694,-5.971,-5.9763,-5.9788,-5.9808,-5.9802,-5.9487,0,0,0,0,0,-5.9323,-5.9393,-5.941,-5.9521,-5.954,-5.9537,-5.9573,-5.9555,-5.9589,-5.9602,-5.9615,-5.9648,-5.9708,-5.9749,-5.9805,-5.9939,-5.9944,-6.0002,-6.0021,-6.0037,-6.0052,-6.0124,-6.015,-5.9874,-5.9873,-5.9873,0,0,-5.9398,-5.942,-5.9465,-5.9541,-5.9566,-5.9637,-5.9549,-5.9628,-5.968,-5.9613,-5.9715,-5.9725,-5.976,-5.9881,-5.9934,-5.9894,-6.0129,-6.0053,-6.0065,-6.0071,-6.0139,-6.0165,-6.0188,-5.9881,-5.988,-5.9879,0,0,-5.9571,-5.9595,-5.9691,-5.9718,-5.9757,-5.9754,-5.9777,-5.9805,-5.981,-5.9912,-5.9863,-5.9924,-6.0028,-6.0056,-6.0083,-6.0267,-6.0226,-6.0286,-6.0389,-6.0459,-6.0481,-6.05,-6.0566,-6.059,-6.03,-6.03,-6.03,0,-5.9658,-5.9766,-5.9744,-5.9828,-5.9862,-5.9807,-5.9903,-5.9929,-5.9984,-6.0009,-5.9963,-6.0094,-6.0113,-6.024,-6.0285,-6.0309,-6.0334,-6.0282,-6.048,-6.0499,-6.0517,-6.0579,-6.0604,-6.0307,-6.0306,-6.0306,-6.0305,0,-5.9872,-5.9947,-6.0019,-6.0076,-6.0119,-6.0208,-6.0198,-6.0244,-6.0222,-6.0223,-6.0326,-6.0348,-6.0408,-6.0436,-6.0415,-6.056,-6.0534,-6.0485,-6.0403,-6.055,-6.0609,-6.0632,-6.0317,-6.0315,-6.0313,-6.0311,0,0,-6.0106,-6.0151,-6.0178,-6.0203,-6.0242,-6.0299,-6.0385,-6.0446,-6.0485,-6.0524,-6.0596,-6.0686,-6.0641,-6.0672,-6.0653,-6.0715,-6.086,-6.0658,-6.0659,-6.0696,-6.1021,-6.1059,-6.1087,-6.0833,-6.0838,-6.0841,-6.1019,0,-6.028,-6.0433,-6.0416,-6.056,-6.0629,-6.0578,-6.0653,-6.0684,-6.0688,-6.0745,-6.0747,-6.0812,-6.0748,-6.0767,-6.0826,-6.083,-6.0925,-6.0817,-6.0898,-6.0901,-6.0892,-6.1117,-6.1157,-6.1323,-6.1041,-6.1045,-6.1048,0,-6.0504,-6.0554,-6.0706,-6.0736,-6.0764,-6.0832,-6.0886,-6.0942,-6.0976,-6.0974,-6.101,-6.098,-6.1065,-6.0982,-6.1098,-6.1025,-6.1057,-6.1064,-6.107,-6.1077,-6.0984,-6.1131,-6.1376,-6.1401,-6.1083,-6.108,-6.1078,0,-6.0661,-6.0766,-6.0871,-6.0894,-6.093,-6.098,-6.0997,-6.1026,-6.1064,-6.111,-6.1134,-6.1189,-6.122,-6.1262,-6.1248,-6.1188,-6.1367,-6.1282,-6.1367,-6.1368,-6.1407,-6.1405,-6.1662,-6.1428,-6.1427,-6.1427,-6.1426,0,-6.0857,-6.0953,-6.0942,-6.1006,-6.1111,-6.109,-6.1193,-6.1204,-6.1231,-6.1295,-6.1253,-6.1314,-6.1291,-6.135,-6.1338,-6.1437,-6.145,-6.145,-6.1446,-6.1455,-6.1455,-6.1475,-6.1464,-6.1433,-6.1432,-6.143,-6.1429,0,-6.105,-6.1047,-6.1158,-6.1184,-6.1193,-6.1269,-6.1291,-6.1351,-6.1351,-6.1433,-6.1451,-6.145,-6.1518,-6.1508,-6.1582,-6.1574,-6.1697,-6.1678,-6.1686,-6.1682,-6.1768,-6.176,-6.2047,-6.2084,-6.1826,-6.1828,-6.183,0,-6.1176,-6.1249,-6.1284,-6.1325,-6.1347,-6.1413,-6.1452,-6.1433,-6.1475,-6.152,-6.1574,-6.1638,-6.1689,-6.1799,-6.1804,-6.186,-6.1843,-6.194,-6.1851,-6.1858,-6.1845,-6.1841,-6.1848,-6.1957,-6.196,-6.1963,-6.1965,0,-6.1401,-6.1396,-6.1455,-6.1513,-6.1561,-6.1606,-6.1646,-6.1681,-6.1666,-6.1715,-6.1785,-6.1824,-6.1901,-6.1965,-6.2018,-6.2033,-6.1997,-6.1992,-6.2015,-6.2025,-6.2027,-6.2027,-6.1735,-6.1986,-6.1984,-6.1982,-6.1981,-6.198,-6.1564,-6.1627,-6.1662,-6.1728,-6.1757,-6.1796,-6.1854,-6.1862,-6.1921,-6.1983,-6.1968,-6.2047,-6.2078,-6.2146,-6.2168,-6.2228,-6.2192,-6.2225,-6.2233,-6.2242,-6.2252,-6.2017,-6.2237,-6.2236,-6.2236,-6.2235,-6.2235,0,-6.1787,-6.1807,-6.1869,-6.1928,-6.198,-6.1943,-6.1985,-6.2031,-6.2102,-6.2135,-6.2187,-6.2267,-6.2328,-6.2339,-6.2398,-6.2444,-6.2428,-6.246,-6.2456,-6.2461,-6.2281,-6.2256,-6.2471,-6.2471,-6.2471,-6.2471,-6.2471,-6.2471,-6.1909,-6.2013,-6.2013,-6.213,-6.2148,-6.2227,-6.2255,-6.229,-6.2316,-6.2409,-6.2461,-6.2468,-6.2492,-6.2552,-6.2607,-6.2608,-6.2632,-6.267,-6.2665,-6.2497,-6.2473,-6.2451,-6.2427,-6.2675,-6.2675,-6.284,-6.2841,-6.2842]}]]